Regional Weather Roundup
Issued by NWS Newport/Morehead, NC

Home | Current Version | Previous Version | Text Only | Print | Product List | Glossary On
Versions: 1 2 3 4 5 6 7 8 9 10 11 12 13 14 15 16 17 18 19 20 21 22 23 24 25 26 27 28 29 30 31 32 33 34 35 36 37 38 39 40 41 42 43 44 45 46 47 48 49 50
000
ASUS42 KMHX 190622
RWRMHX
WEATHER ROUNDUP FOR EASTERN NORTH CAROLINA
NATIONAL WEATHER SERVICE NEWPORT/MOREHEAD CITY NC
200 AM EDT SAT APR 19 2014

NOTE: "FAIR" INDICATES FEW OR NO CLOUDS BELOW 12,000 FEET
WITH NO SIGNIFICANT WEATHER AND/OR OBSTRUCTIONS TO VISIBILITY

NCZ015>017-031-032-045>047-102-103-190700-
NORTH COAST

CITY           SKY/WX    TMP DP  RH WIND       PRES   REMARKS
EDENTON        CLOUDY    47  44  89 N7        30.24F
ELIZABETH CITY MOCLDY    47  43  86 N9        30.23F
KITTY HAWK     LGT RAIN  47  46  94 N8        30.21F
MANTEO         CLOUDY    47  46  96 NE10      30.22F

$$

NCZ045>047-081-094-103-104-190700-
CENTRAL COAST

CITY           SKY/WX    TMP DP  RH WIND       PRES   REMARKS
FRISCO         CLOUDY    51  51 100 NE12G18   30.17F
SWANQUARTER      N/A     50 N/A N/A N10G16    30.15F

$$

NCZ095-097-098-100-101-190700-
SOUTHERN COAST

CITY           SKY/WX    TMP DP  RH WIND       PRES   REMARKS
BEAUFORT       LGT RAIN  55  53  93 NE13G22   30.11F
CEDAR ISLAND     N/A     55 N/A N/A N16G25    30.21F
JACKSONVILLE   RAIN      50  50 100 N9        30.13S
NEWPORT          N/A     52  50  93 N12         N/A
PINEY ISLAND   CLOUDY    56  53  90 NE15G21   30.14F
WILMINGTON     HVY RAIN  52  50  93 NE17      30.08F FOG


$$

NCZ011>013-027>030-043-044-078>080-089-090>093-098-190700-
COASTAL PLAIN

CITY           SKY/WX    TMP DP  RH WIND       PRES   REMARKS
AHOSKIE        FAIR      46  41  80 NE3       30.24F
CLINTON        RAIN      50  50  99 NE10G16   30.17S
ELIZABETHTOWN  RAIN      52  52 100 NE6       30.13S
GOLDSBORO      LGT RAIN  49  48  98 VRB7G18   30.15F
GREENVILLE     DRIZZLE   46  45  93 N7        30.21F
HAVELOCK       LGT RAIN  52  49  89 NE14      30.15F
KENANSVILLE    RAIN      48  47  96 N5        30.18R
KINSTON        RAIN      48  47  94 N9        30.20F
NEW BERN       LGT RAIN  51  48  89 NE10      30.17F
RICHLANDS      CLOUDY    48 N/A N/A N10       30.15S
ROANOKE RAPIDS NOT AVBL
ROCKY MOUNT    CLOUDY    49  44  83 NE8       30.21F
WASHINGTON     CLOUDY    47  43  85 NE9       30.18F
WHITEVILLE     CLOUDY    53  51  94 NE10G18   30.09F

$$

AMZ130-135-150-152-154-156-158-170-250-252-270-ANZ085-086-088-633-658-670-190700-
MARINE OBSERVATIONS

STATION/POSITION TIME  TEMP    WIND        PRES    WAVE   SWELL
                       AIR SEA DIR/SP/G            HT/PER HT/PER
                 (UTC) (F)     (DEG/KT/KT) (MB)    (FT/S) (FT/S)
CHESAPEAKE LIGHT 0600   45      20/  9/ 10 1024.4
BUOY 44014       0600   49 49  360/ 14/ 16 1022.8    6/12   5/12
DUCK             0600   47 49   20/ 11/ 12 1022.4
2E DUCK          0600      48                N/A     5/11   2/11
OREGON INLET     0600   48 53  360/ 10/ 14 1022.6
BUOY 44095       0600      48                N/A     6/11   3/11
HATTERAS CG      0600   53 57   40/ 11/ 19 1021.2
DIAMOND BUOY     NOT AVBL
CAPE LOOKOUT     0600   55      30/ 23/ 27 1019.5
BEAUFORT LAB     0600   54 59   30/ 12/ 16 1019.0
30 SE NEW RIVER  0600   58 64   40/ 21/ 27 1018.6    8/ 6   2/10
5 SE WRIGHTSVILL 0600   54 59   40/ 25/ 31 1017.5
FRYING PAN BUOY  0600   64 65   60/ 19/ 33 1015.1    9/ 7   2/11
BUOY 41001       NOT AVBL
BUOY 41002       NOT AVBL
BUOY 41004       NOT AVBL

$$



USA.gov is the U.S. government's official web portal to all federal, state and local government web resources and services.